DW1920 Weather Reports


Display with metric or nautical units.
time (UTC)temp
F
wind
direction
speed
MPH
gust
MPH
rain 1hr
in
rain 24hr
in
rain mn
in
humidity
%
barometer
mb
20211020013003 48 276 10.0 15.0 0.00 0.00 0.00 71 1007.3
20211020012002 48 271 10.0 15.0 0.00 0.00 0.00 71 1007.3
20211020011002 48 278 9.0 14.0 0.00 0.00 0.00 72 1007.5
20211020010002 48 278 8.0 14.0 0.00 0.00 0.00 72 1007.3
20211020005002 48 283 7.0 13.0 0.00 0.00 0.00 72 1007.4
20211020004003 48 288 10.0 13.0 0.00 0.00 0.00 72 1007.6
20211020003003 48 279 8.0 12.0 0.00 0.00 0.00 72 1007.2
20211020002002 48 282 9.0 14.0 0.00 0.00 0.00 72 1007.0
20211020001003 48 282 8.0 15.0 0.00 0.00 0.00 71 1006.9
20211020000002 48 273 11.0 15.0 0.00 0.00 0.00 71 1006.8
20211019235003 49 284 8.0 16.0 0.00 0.00 0.00 71 1006.9
20211019234003 49 283 10.0 14.0 0.00 0.00 0.00 72 1006.8
20211019233002 49 275 8.0 16.0 0.00 0.00 0.00 73 1006.6
20211019232003 49 283 10.0 16.0 0.00 0.00 0.00 74 1006.6
20211019231003 49 281 9.0 13.0 0.00 0.00 0.00 76 1006.6
20211019230002 50 284 7.0 13.0 0.00 0.00 0.00 76 1006.5
20211019225004 50 289 6.0 12.0 0.00 0.00 0.00 76 1006.4
20211019224002 50 281 6.0 13.0 0.00 0.00 0.00 76 1006.3
20211019223004 50 280 7.0 11.0 0.00 0.00 0.00 75 1006.3
20211019222003 50 282 6.0 13.0 0.00 0.00 0.00 75 1006.0
20211019221002 50 288 7.0 12.0 0.00 0.00 0.00 75 1005.9
20211019220003 50 303 6.0 11.0 0.00 0.00 0.00 74 1005.7
20211019215002 50 310 5.0 7.0 0.00 0.00 0.00 74 1005.8
20211019214002 50 305 2.0 9.0 0.00 0.00 0.00 74 1005.7
20211019213003 50 321 5.0 12.0 0.00 0.00 0.00 73 1005.6
20211019212002 50 298 7.0 13.0 0.00 0.00 0.00 73 1005.4
20211019211004 50 304 10.0 15.0 0.00 0.00 0.00 72 1005.4
20211019210002 50 302 8.0 12.0 0.00 0.00 0.00 72 1005.4
20211019205002 50 305 6.0 14.0 0.00 0.00 0.00 72 1005.4
20211019204002 51 291 10.0 17.0 0.00 0.00 0.00 71 1005.4
20211019203002 51 302 11.0 17.0 0.00 0.00 0.00 71 1005.2
20211019202002 51 303 6.0 17.0 0.00 0.00 0.00 71 1005.4
20211019201003 51 311 11.0 19.0 0.00 0.00 0.00 71 1005.3
20211019200002 51 295 11.0 24.0 0.00 0.00 0.00 70 1005.1
20211019195002 51 314 9.0 22.0 0.00 0.00 0.00 70 1005.1
20211019194003 51 315 9.0 20.0 0.00 0.00 0.00 70 1005.2
20211019193002 52 289 0.0 1.0 0.00 0.00 0.00 68 1005.2
20211019192003 52 305 0.0 1.0 0.00 0.00 0.00 68 1005.1
20211019191003 52 321 0.0 0.0 0.00 0.00 0.00 67 1005.0
20211019190002 52 310 0.0 1.0 0.00 0.00 0.00 67 1005.0
20211019185003 52 311 0.0 23.0 0.00 0.00 0.00 67 1004.9
20211019184002 52 277 17.0 31.0 0.00 0.00 0.00 66 1004.9
20211019183003 52 286 12.0 20.0 0.00 0.00 0.00 69 1004.9
20211019182003 52 277 11.0 19.0 0.00 0.00 0.00 67 1005.1
20211019181002 52 297 14.0 21.0 0.00 0.00 0.00 67 1004.9
20211019180003 52 283 15.0 23.0 0.00 0.00 0.00 66 1005.0
20211019175003 52 290 13.0 24.0 0.00 0.00 0.00 66 1005.1
20211019174002 52 293 16.0 26.0 0.00 0.00 0.00 65 1005.2
20211019173003 52 284 13.0 21.0 0.00 0.00 0.00 66 1005.2
20211019172003 52 278 10.0 23.0 0.00 0.00 0.00 66 1005.4
20211019171002 52 277 14.0 26.0 0.00 0.00 0.00 65 1005.5
20211019170002 52 280 17.0 25.0 0.00 0.00 0.00 64 1005.6
20211019165003 52 287 12.0 20.0 0.00 0.00 0.00 64 1005.7
20211019164002 53 287 11.0 27.0 0.00 0.00 0.00 66 1005.6
20211019163002 53 284 15.0 24.0 0.00 0.00 0.00 64 1005.8
20211019162003 53 283 16.0 28.0 0.00 0.00 0.00 63 1005.9
20211019161002 53 283 18.0 26.0 0.00 0.00 0.00 63 1005.9
20211019160003 53 281 17.0 28.0 0.00 0.00 0.00 64 1006.0
20211019155002 53 279 17.0 27.0 0.00 0.00 0.00 64 1006.0
20211019154003 53 295 15.0 23.0 0.00 0.00 0.00 65 1006.3
20211019153003 52 303 11.0 25.0 0.00 0.00 0.00 66 1006.3
20211019152002 52 292 16.0 23.0 0.00 0.00 0.00 66 1006.4
20211019151003 51 302 18.0 24.0 0.00 0.00 0.00 67 1006.4
20211019150002 51 287 13.0 26.0 0.00 0.00 0.00 71 1006.4
20211019145002 51 283 12.0 25.0 0.00 0.00 0.00 71 1006.3
20211019144003 51 289 15.0 21.0 0.00 0.00 0.00 70 1006.5
20211019143002 51 292 16.0 26.0 0.00 0.00 0.00 70 1006.5
20211019142004 51 290 13.0 26.0 0.00 0.00 0.00 70 1006.6
20211019141003 51 286 12.0 29.0 0.00 0.00 0.00 71 1006.7
20211019140002 51 282 15.0 22.0 0.00 0.00 0.00 69 1006.7
20211019135002 51 281 11.0 26.0 0.00 0.00 0.00 72 1006.7
20211019134003 51 289 13.0 23.0 0.00 0.00 0.00 71 1007.1
20211019133002 50 275 15.0 23.0 0.00 0.00 0.00 72 1007.0
20211019132002 50 276 13.0 29.0 0.00 0.00 0.00 72 1006.8
20211019131003 50 276 14.0 19.0 0.00 0.00 0.00 74 1006.8
20211019130002 49 278 14.0 22.0 0.00 0.00 0.00 73 1007.0
20211019125003 49 276 13.0 21.0 0.00 0.00 0.00 75 1007.1
20211019124003 49 278 16.0 25.0 0.00 0.00 0.00 76 1007.0
20211019123002 48 272 11.0 19.0 0.00 0.00 0.00 77 1007.2
20211019122003 48 275 11.0 17.0 0.00 0.00 0.00 77 1007.3
20211019121003 48 276 12.0 19.0 0.00 0.00 0.00 77 1007.2
20211019120002 48 275 12.0 18.0 0.00 0.00 0.00 77 1007.2
20211019115003 48 280 12.0 18.0 0.00 0.00 0.00 77 1007.1
20211019114003 48 278 12.0 23.0 0.00 0.00 0.00 77 1007.1
20211019113003 48 279 15.0 20.0 0.00 0.00 0.00 78 1007.0
20211019112002 47 283 14.0 18.0 0.00 0.00 0.00 78 1007.0
20211019111004 47 274 11.0 15.0 0.00 0.00 0.00 80 1007.0
20211019110002 47 274 8.0 15.0 0.00 0.00 0.00 80 1007.0
20211019105002 47 277 10.0 14.0 0.00 0.00 0.00 80 1006.9
20211019104003 47 276 10.0 14.0 0.00 0.00 0.00 79 1006.9
20211019103002 47 276 10.0 14.0 0.00 0.00 0.00 79 1006.7
20211019102002 48 278 10.0 14.0 0.00 0.00 0.00 79 1006.7
20211019101003 48 277 10.0 16.0 0.00 0.00 0.00 79 1006.6
20211019100002 48 277 11.0 17.0 0.00 0.00 0.00 79 1006.6
20211019095003 48 275 11.0 16.0 0.00 0.00 0.00 79 1006.5
20211019094002 48 274 11.0 15.0 0.00 0.00 0.00 78 1006.6
20211019093002 48 278 10.0 16.0 0.00 0.00 0.00 78 1006.6
20211019092003 48 285 12.0 19.0 0.00 0.00 0.00 78 1006.5
20211019091003 49 282 10.0 18.0 0.00 0.00 0.00 78 1006.5
20211019090003 49 282 11.0 17.0 0.00 0.00 0.00 78 1006.5
20211019085002 49 285 12.0 17.0 0.00 0.00 0.00 79 1006.5
20211019084003 49 286 9.0 18.0 0.00 0.00 0.00 79 1006.5
20211019083002 48 284 11.0 23.0 0.00 0.00 0.00 79 1006.3
20211019082002 48 289 13.0 19.0 0.00 0.00 0.00 79 1006.2
20211019081003 48 295 9.0 17.0 0.00 0.00 0.00 80 1005.9
20211019080002 47 294 11.0 21.0 0.00 0.00 0.00 82 1005.8
20211019075003 47 303 9.0 16.0 0.00 0.00 0.00 82 1005.8
20211019074002 47 277 7.0 12.0 0.00 0.00 0.00 81 1005.9
20211019073002 47 282 9.0 14.0 0.00 0.00 0.00 81 1005.9
20211019072003 47 278 9.0 15.0 0.00 0.00 0.00 81 1005.9
20211019071002 47 278 9.0 14.0 0.00 0.00 0.00 81 1006.0
20211019070002 47 281 9.0 15.0 0.00 0.00 0.00 81 1006.1
20211019065003 47 281 8.0 15.0 0.00 0.00 0.00 81 1006.1
20211019064002 47 276 10.0 14.0 0.00 0.00 0.00 80 1006.2
20211019063003 47 283 9.0 16.0 0.00 0.00 0.00 80 1006.4
20211019062003 47 282 11.0 17.0 0.00 0.00 0.00 80 1006.5
20211019061002 47 278 10.0 15.0 0.00 0.00 0.00 80 1006.4
20211019060002 47 278 12.0 20.0 0.00 0.00 0.00 80 1006.4
20211019055003 48 280 10.0 19.0 0.00 0.00 0.00 80 1006.5
20211019054002 48 280 12.0 20.0 0.00 0.00 0.00 80 1006.3
20211019053003 48 286 13.0 20.0 0.00 0.00 0.00 80 1006.3
20211019052002 48 283 13.0 20.0 0.00 0.00 0.00 80 1006.3
20211019051003 48 288 14.0 21.0 0.00 0.00 0.00 80 1006.3
20211019050003 47 281 12.0 20.0 0.00 0.00 0.00 80 1006.3
20211019045002 47 279 12.0 19.0 0.00 0.00 0.00 80 1006.4
20211019044003 47 287 10.0 16.0 0.00 0.00 0.00 80 1006.4
20211019043003 48 291 11.0 15.0 0.00 0.00 0.00 80 1006.4
20211019042003 47 288 11.0 20.0 0.00 0.00 0.00 80 1006.3
20211019041002 48 285 13.0 18.0 0.00 0.00 0.00 80 1006.3
20211019040002 48 285 0.0 1.0 0.00 0.00 0.00 79 1006.2
20211019035002 48 284 0.0 1.0 0.00 0.00 0.00 79 1006.3
20211019034003 48 286 0.0 1.0 0.00 0.00 0.00 79 1006.3
20211019033003 48 292 0.0 1.0 0.00 0.00 0.00 79 1006.3
20211019032003 49 293 0.0 1.0 0.00 0.00 0.00 78 1006.2
20211019031002 49 283 0.0 1.0 0.00 0.00 0.00 78 1006.1
20211019030003 49 296 0.0 17.0 0.00 0.00 0.00 78 1006.1
20211019025003 49 300 9.0 17.0 0.00 0.00 0.00 77 1006.1
20211019024002 49 300 12.0 19.0 0.00 0.00 0.00 77 1006.1
20211019023002 49 291 11.0 19.0 0.00 0.00 0.00 77 1006.0
20211019022003 49 290 8.0 20.0 0.00 0.00 0.00 77 1005.9
20211019021003 49 294 11.0 17.0 0.00 0.00 0.00 76 1006.0
20211019020003 50 301 6.0 19.0 0.00 0.00 0.00 76 1006.0
20211019015002 50 305 11.0 20.0 0.00 0.00 0.00 75 1006.0
20211019014003 50 290 10.0 21.0 0.00 0.00 0.00 75 1005.9